Presure
136 150 166 157 123 135 160 141 133 140 150 154 154 139 158 145 160 151 176 204 181 114 115 119 189 183 172 184 156 187 208 199 160 213 214 172 175 169 172 167 171 168 169 177 169
152 170 139 124 133 132 138 137 162 148 155 146 137 157 147 169 162 119 175 194 184 190 118 123 173 184 177 176 177 139 175 192 190 185 184 170 172 170 171 168 168 167 168 169 165
142 143 151 129 133 152 153 139 150 154 139 170 138 133 143 166 165 172 166 194 181 188 173 186 188 184 179 180 146 170 167 185 174 179 177 177 167 165 162 159 158 161 168 169 173
140 152 144 160 139 141 142 135 166 167 154 167 144 150 145 167 152 182 166 190 182 178 140 184 182 180 183 181 175 167 165 184 166 173 167 168 170 162 161 161 168 161 166 151 171
159 145 157 166 134 143 143 135 149 151 142 164 150 160 173 142 170 162 192 184 176 170 185 186 168 180 184 178 165 159 167 171 167 175 170 169 161 169 166 169 163 163 159 162 164
107 164 162 101 162 141 136 156 137 138 152 142 162 170 162 172 165 191 192 180 176 171 185 184 180 179 177 178 162 148 166 175 163 175 158 164 143 167 170 161 159 160 173 165 159
138 90 158 94 140 136 134 153 153 137 173 167 175 169 160 140 174 188 184 175 174 174 183 184 179 185 112 175 163 146 169 146 155 148 176 165 160 173 168 168 165 169 155 167 167
169 162 143 141 131 161 156 155 150 156 170 175 161 160 162 168 191 192 179 173 183 168 180 178 187 108 168 171 162 171 163 156 148 184 142 160 170 173 166 168 163 151 157 158 170
158 157 134 151 160 138 137 145 148 153 174 161 166 157 169 177 200 182 177 173 171 173 175 178 121 110 97 123 107 109 158 154 148 170 160 159 158 167 162 160 167 164 151 160 156
167 150 155 147 139 152 169 142 146 158 158 172 167 160 165 200 186 180 172 169 157 177 176 184 184 186 160 167 154 137 161 152 162 152 156 155 153 150 161 156 143 153 165 149 162
155 140 145 175 162 171 116 137 178 168 174 162 166 169 179 193 180 176 171 167 157 168 178 158 185 85 173 166 116 89 161 147 152 151 151 163 142 158 158 150 150 149 166 159 161
163 150 159 149 163 154 175 177 177 157 147 141 169 171 194 190 176 173 168 177 152 166 170 158 172 146 149 150 163 142 145 158 148 142 149 145 138 160 156 150 158 159 152 150 147
159 169 169 161 158 148 175 169 152 153 172 163 165 169 191 188 172 171 167 181 169 167 172 168 139 192 167 166 162 157 155 157 156 148 148 139 150 164 158 149 151 141 154 153 145
156 172 166 178 176 167 171 175 176 174 168 160 169 183 184 182 171 172 163 170 153 166 169 160 87 166 168 173 141 145 146 168 153 150 158 144 163 147 137 151 150 157 150 149 156
194 172 179 187 176 176 175 157 174 165 161 171 193 182 179 182 171 166 162 176 155 165 164 95 153 170 154 143 144 141 148 155 153 143 142 139 157 132 154 159 159 160 170 149 166
176 163 172 169 172 171 161 165 153 163 174 150 201 180 176 178 168 162 118 165 145 151 113 157 163 155 151 142 153 156 152 139 139 134 162 157 158 162 164 162 164 158 166 161 145
153 167 166 190 165 181 166 169 172 168 167 203 194 183 173 174 169 167 160 157 154 157 152 151 152 163 161 150 143 143 140 140 149 151 158 158 150 156 164 168 129 153 155 154 161
181 171 148 173 174 171 177 168 171 163 171 200 186 192 182 175 170 164 161 157 157 152 147 150 154 154 157 153 156 153 150 156 148 148 153 153 154 157 160 158 153 159 171 117 165
163 163 181 171 175 164 178 168 164 174 172 197 181 186 180 168 169 165 160 164 156 157 153 140 148 142 154 145 144 145 153 154 152 147 147 152 149 162 164 152 163 167 164 159 136
164 189 114 129 171 176 174 172 163 169 168 190 182 181 187 169 167 164 163 155 161 155 150 152 149 158 152 147 155 147 143 143 147 148 150 158 167 161 162 158 165 155 160 161 147
192 154 150 179 178 174 167 170 170 166 157 160 184 176 183 175 185 172 170 155 158 152 152 159 151 148 150 150 153 151 153 150 157 158 172 169 165 152 159 174 156 163 154 157 157
159 156 161 191 175 177 176 176 169 170 158 151 173 185 177 184 172 176 188 162 158 159 156 150 150 160 157 155 150 155 161 156 158 179 172 172 173 162 160 147 149 161 163 158 111
149 181 158 174 153 144 172 174 167 167 173 172 155 183 179 176 180 181 163 171 168 161 156 156 154 155 151 150 157 157 158 153 171 159 162 157 165 162 153 148 155 150 152 143 160
182 158 157 170 155 171 164 175 152 153 172 163 163 167 171 178 173 163 179 175 162 165 169 167 165 165 166 165 160 160 158 169 165 156 159 158 144 170 120 138 142 151 153 159 163
169 169 162 184 160 171 175 169 167 172 151 169 161 151 170 152 177 174 164 162 166 176 178 177 166 167 167 171 168 178 161 152 156 153 155 149 159 166 140 149 160 155 155 163 161
177 173 208 168 192 152 152 178 174 170 161 170 167 142 146 158 147 149 149 170 172 162 161 138 158 174 145 149 171 163 155 151 143 151 163 145 141 144 151 157 159 166 107 164 175
188 178 181 172 200 199 176 178 182 177 173 159 165 175 170 168 166 178 171 149 145 164 173 162 154 152 162 168 172 159 159 164 160 164 146 103 124 126 160 160 162 162 172 160 163
Wind_Speed
42 35 46 35 29 35 42 38 37 37 43 40 45 35 52 40 60 44 63 43 37 29 31 30 35 33 32 32 32 31 29 27 26 18 13 27 24 27 26 30 30 34 37 39 42
41 54 38 33 33 40 37 41 49 43 46 42 35 53 41 55 56 32 56 47 40 35 33 32 35 33 32 32 32 28 31 26 24 23 22 28 26 27 29 32 34 37 41 43 44
38 37 35 41 40 29 44 43 42 45 40 59 36 29 40 62 65 66 54 39 39 34 37 35 32 32 32 32 36 31 32 27 29 26 24 24 30 33 36 39 42 43 42 44 45
38 33 34 39 39 39 40 41 51 53 46 60 38 46 42 56 47 55 49 35 36 35 32 35 31 31 31 30 30 31 32 26 32 29 31 31 30 38 39 42 39 43 42 51 45
42 33 36 53 39 40 38 40 40 45 46 50 47 56 55 39 58 50 34 35 34 35 36 33 32 29 29 28 31 34 32 31 32 28 29 31 39 36 39 38 42 42 46 48 45
25 50 53 19 52 39 37 49 42 40 51 44 54 54 54 55 48 42 32 34 32 34 34 32 30 28 28 27 31 39 32 29 34 28 39 34 47 38 38 43 44 45 42 47 50
40 24 53 23 42 41 37 48 47 41 46 48 50 51 52 39 53 37 33 34 32 34 33 31 30 29 45 26 31 37 30 44 40 44 31 35 43 36 40 39 41 42 54 46 44
67 61 35 37 39 58 54 48 46 47 45 49 50 49 52 55 44 32 34 34 29 34 32 30 29 40 29 25 30 29 32 38 44 29 50 40 37 36 43 43 47 55 52 54 47
50 54 40 51 58 42 44 39 46 52 48 49 48 47 52 51 31 33 32 33 32 33 34 32 36 36 33 32 36 48 36 40 46 35 43 43 42 40 45 47 46 51 58 54 55
67 43 51 47 43 49 60 41 49 57 53 47 48 52 53 34 32 33 33 33 37 31 33 32 30 26 28 27 36 46 33 41 38 45 45 44 49 50 42 47 58 54 51 58 52
57 40 39 56 56 58 37 40 52 56 49 51 50 53 49 34 34 33 33 35 37 34 32 36 30 31 26 29 43 46 31 44 43 46 47 40 58 46 47 55 56 58 48 56 53
62 50 54 48 55 49 54 55 49 54 46 42 51 49 39 34 36 35 35 32 39 35 32 38 30 31 37 38 33 43 45 36 46 52 48 52 60 42 46 53 52 53 59 59 57
58 59 60 62 56 47 52 50 48 53 51 50 53 50 38 34 36 36 37 31 33 33 32 35 38 29 32 33 34 37 39 39 40 46 46 57 50 42 44 52 55 68 60 63 64
57 58 56 52 52 56 51 50 49 50 49 54 51 44 40 35 35 37 39 34 36 36 33 37 43 35 33 32 45 43 45 37 44 46 41 49 42 53 60 53 56 54 61 66 65
47 56 49 45 51 51 51 51 50 50 53 49 40 42 41 36 35 40 40 34 38 38 38 47 43 36 43 45 46 48 47 46 48 51 52 53 48 60 51 53 53 57 58 65 64
55 51 50 50 49 49 50 54 52 53 50 48 36 41 42 38 38 43 38 37 39 43 45 42 41 44 46 49 47 47 49 54 53 55 55 55 57 57 56 53 54 53 57 60 67
50 51 52 47 52 50 55 53 51 52 50 36 37 42 42 42 41 42 42 42 44 45 45 45 46 45 47 49 53 53 55 58 61 62 62 59 58 62 65 63 51 52 62 61 63
53 52 44 51 54 55 51 53 50 52 49 36 37 38 44 43 42 44 45 45 47 48 50 50 49 48 49 51 53 55 57 56 60 65 68 67 66 68 70 69 67 62 60 55 63
54 54 54 56 53 57 52 53 53 49 45 39 39 38 44 45 46 47 47 45 49 51 51 53 53 54 51 57 59 60 61 59 61 65 69 72 69 75 71 68 71 73 66 62 61
57 55 34 39 58 53 53 52 51 49 49 39 42 44 43 48 48 50 49 51 50 53 56 57 57 56 57 61 58 62 64 65 64 66 69 73 70 70 69 68 68 72 71 67 68
55 51 47 56 56 55 58 56 54 50 51 48 42 46 47 49 51 53 54 55 55 58 58 57 57 60 62 63 65 66 65 66 66 67 66 62 72 69 69 68 64 65 64 65 70
55 54 54 55 59 58 59 57 57 53 57 53 50 46 48 49 51 52 52 58 59 60 60 58 59 60 63 64 67 69 69 68 68 63 65 63 68 66 67 64 69 72 71 68 54
48 59 50 55 54 48 58 60 60 59 57 55 56 49 51 51 48 53 57 58 60 62 63 62 64 65 67 67 69 70 70 70 68 68 65 66 65 67 67 68 69 69 70 69 79
64 58 57 54 58 61 60 63 54 56 61 59 60 55 55 53 55 60 54 60 63 64 65 66 68 69 70 69 69 71 72 70 69 71 65 71 66 73 59 66 63 67 68 74 79
66 67 66 61 62 64 63 65 65 67 54 64 61 56 56 54 57 58 63 63 64 64 65 65 68 68 71 69 67 70 71 75 72 72 69 68 67 69 69 73 78 75 78 78 73
64 66 64 67 65 59 59 72 71 68 66 69 66 56 57 69 55 57 55 65 65 69 70 54 64 70 56 58 65 67 78 75 67 77 70 60 65 63 74 77 80 80 56 83 84
71 64 66 70 69 72 72 73 78 74 71 67 69 72 71 72 67 66 68 60 61 68 69 69 68 63 73 75 69 69 80 81 78 76 65 47 58 55 78 80 83 81 84 77 79
Wind_Direction
235 246 273 271 261 263 287 273 274 284 300 303 307 300 317 309 320 314 321 325 319 312 309 314 315 319 326 333 329 339 341 338 337 330 327 334 334 325 324 321 319 317 316 317 317
245 263 237 253 259 263 268 269 309 295 301 290 293 313 307 314 316 306 318 322 315 317 310 314 315 318 326 332 335 336 339 341 341 339 339 329 326 325 324 322 322 320 319 318 321
229 238 257 251 253 276 286 268 287 293 284 306 293 300 305 316 313 315 313 313 312 313 315 312 313 318 327 329 322 331 335 339 335 336 333 330 326 328 329 329 328 323 320 322 325
233 255 240 275 253 270 266 271 304 307 298 305 295 300 302 308 308 310 309 307 311 311 311 311 313 322 325 325 327 327 329 336 333 332 332 330 325 330 329 327 324 324 323 327 329
261 239 273 279 254 257 270 273 291 283 282 297 294 305 300 301 306 306 301 303 306 307 309 308 311 320 323 321 322 325 331 333 333 330 331 327 330 324 327 325 326 324 325 325 328
242 267 272 255 282 258 264 295 275 285 286 287 299 299 302 298 303 304 295 298 303 303 305 308 312 317 321 319 318 319 330 332 331 330 335 328 333 326 325 329 327 325 325 326 330
230 261 277 265 253 258 266 289 293 280 288 292 293 294 299 296 300 294 292 293 299 300 303 307 311 315 317 317 313 317 329 324 328 329 332 330 331 325 327 326 327 327 330 325 325
265 274 244 247 256 281 286 284 288 287 284 286 293 295 297 294 297 288 289 291 299 298 302 306 310 315 316 311 312 323 327 324 324 330 328 332 329 329 332 329 330 330 329 331 326
261 268 238 267 277 259 263 277 284 289 283 288 288 290 291 293 281 284 286 290 293 297 300 303 315 320 325 321 326 323 321 322 323 329 330 330 333 331 330 330 327 327 331 331 331
262 261 273 261 256 273 271 272 280 286 283 281 287 290 289 286 279 282 283 286 288 293 297 299 305 309 312 306 314 315 316 320 323 325 327 329 331 332 326 328 333 330 328 330 325
258 247 262 267 275 268 271 269 274 278 279 285 285 284 290 279 278 279 280 285 286 295 294 300 303 338 300 304 322 329 314 318 320 323 326 335 330 331 330 331 329 330 329 330 330
256 260 264 266 269 273 263 268 267 275 277 281 281 283 284 272 275 278 280 287 284 295 295 296 303 313 305 308 305 312 317 314 318 321 323 325 327 327 327 326 327 327 328 329 329
258 258 261 263 264 267 263 266 270 275 271 278 281 283 278 270 273 278 279 286 285 291 294 296 305 295 303 302 304 308 311 312 314 316 319 322 323 325 324 324 325 326 327 327 329
261 256 257 253 257 263 261 260 261 266 271 280 279 280 277 270 271 275 279 284 285 290 291 294 323 301 300 300 306 310 312 311 312 313 314 317 326 323 325 324 322 327 324 326 327
239 253 249 244 251 254 257 266 262 270 277 274 271 273 275 271 271 275 279 284 285 289 291 314 296 299 302 302 305 308 310 311 311 314 316 317 319 319 323 326 332 335 336 323 333
246 258 253 256 255 256 263 266 273 272 269 279 257 263 268 269 269 273 292 283 290 287 306 294 297 297 301 302 305 307 308 309 310 312 319 320 321 324 326 328 330 328 333 330 327
256 255 256 242 258 247 262 261 263 270 273 268 260 254 264 265 268 269 276 280 282 287 290 292 295 296 297 301 302 304 308 310 312 316 319 320 319 322 326 328 330 329 330 329 332
237 247 262 252 250 255 254 260 264 271 275 273 263 264 257 262 265 269 274 279 280 283 289 291 293 298 299 301 303 305 307 310 312 315 317 319 323 324 324 327 330 331 333 331 332
252 254 240 250 248 261 253 261 265 270 274 269 264 264 254 263 264 269 273 274 279 282 287 295 295 297 297 299 302 306 306 309 312 313 315 315 320 317 321 327 326 326 331 332 328
252 236 266 263 254 251 257 260 267 267 269 274 266 264 259 264 266 268 271 277 272 281 284 288 293 293 295 299 298 303 306 309 310 312 311 311 310 314 319 323 325 325 327 331 331
241 256 264 247 249 251 259 258 262 265 275 277 269 271 262 265 263 269 267 274 274 280 286 287 288 294 295 297 298 301 302 305 306 307 307 307 308 316 317 316 320 321 327 328 328
253 258 258 245 250 251 256 256 262 260 272 280 273 268 267 266 272 271 267 271 276 278 282 288 289 285 289 293 299 298 298 302 303 304 306 309 306 312 315 320 322 324 326 327 331
252 245 250 251 266 267 258 256 263 265 263 266 277 271 268 268 268 268 274 273 273 277 282 284 285 287 292 296 294 296 298 301 302 303 306 307 312 311 315 318 320 324 325 327 329
246 259 259 252 264 255 262 257 270 267 265 269 269 272 272 270 269 272 269 269 277 277 277 279 281 283 284 288 292 294 296 296 300 304 309 306 313 309 316 318 317 319 321 323 325
252 254 258 252 263 260 256 259 260 261 270 268 270 275 268 273 268 268 274 277 275 276 278 278 278 281 283 284 290 292 293 296 298 303 307 307 308 309 313 315 315 320 321 321 324
248 252 250 259 252 265 267 258 262 263 270 265 269 271 273 274 275 277 279 273 274 278 281 284 285 283 293 295 289 293 292 295 301 300 302 308 306 310 310 312 313 317 314 320 323
249 256 257 258 249 249 258 260 261 263 264 269 268 267 269 270 273 273 271 275 278 278 276 279 288 284 289 290 293 294 292 294 296 297 302 320 314 314 308 311 312 315 316 320 323